Weather in Nikolayevka

Russia / Kurgan Oblast     55°34′02″N   62°45′33″E
temp.,
°C
wind,
m/s
gust,
m/s
humid.,
%
clouds,
%
prec.,
mm/h
press.,
hPa
HPBL,
m
24 may, tue
tue2423:00+8sse3997100 0.3 1004243
02:00+10s61395100 0.2 1005385
05:00+9ssw412965 0.2 1007329
08:00+13ssw578540 0.0 1008523
11:00+15s5776100 0.0 1009699
14:00+15ese51091100 1.6 1008311
17:00+22ssw496495 1.7 10071245
20:00+18nnw1177100 0.1 100812
25 may, wed
wed2523:00+15e2289100 0.3 100931
02:00+14sse4977100 0.1 1009168
05:00+13sse41370100 0.1 1008215
08:00+16sse41368100 0.0 1008358
11:00+20sse6105498 0.0 1008614
14:00+24s694979 0.0 10081373
17:00+23s61156100 0.0 1007654
20:00+18sse496677 0.1 1007154
26 may, thu
thu2623:00+14ssw3571100 0.1 100865
02:00+11nnw489311 0.0 1008176
05:00+10wnw61086100 0.0 1010357
08:00+11nnw798497 0.0 1009455
11:00+12nnw91182100 0.1 1009745
14:00+12nnw91177100 0.6 1009798
17:00+10nnw91381100 0.8 1008731
20:00+8nnw91781100 1.4 1008673
27 may, fri
fri2723:00+8nnw81685100 1.7 1009804
02:00+8nw71387100 0.1 1010823
05:00+6wnw6138621 0.1 1011383
08:00+9wnw711721 0.0 1012681
11:00+13wnw79595 0.0 10131303
14:00+15w6852100 0.0 10132071
17:00+15w575460 0.0 10141873
20:00+12w237119 0.0 101438
28 may, sat
sat2823:00+10s33708 0.0 101527
02:00+9ssw368132 0.0 101595
05:00+8s488512 0.0 1015126
08:00+13s59715 0.0 1015388
11:00+17s785810 0.0 10141259
14:00+19ssw675186 0.0 10142086
17:00+18ssw4765100 0.3 1014737
20:00+16s3675100 0.1 1015107